CZ-6A DEB, 55898

Orbit data source: Space-Track

CZ-6A DEB, 55898 is space debris in SSO originally from a launch on Fri, 11 Nov 2022 UTC launched from the Taiyaun Space Center, China (TSC). Debris objects in space refer to the collection of defunct objects orbiting the Earth. Examples of debris include non-operational satellites, rocket bodies, and fragments generated from explosions, collisions, or faulty payload assembly.

Loading next visibility...
Identifier
55898, 2022-151AAW
Orbit
SSO
Country
Flag of CNCN / PRC
Related business
Manufacturer
SAST
Mission
Spacecraft
Bus & Motor
Unknown
Mass
Unknown
Launch date (UTC)
2022-11-11 (4 years ago)
Launch vehicle
Unknown
Launch site
Taiyaun Space Center, China (TSC)
Object type
Payload
Rocket body
Debris
Shape & HBR
Unknown shape, 0.1 m
Radar Cross Section
Small (<0.1 m²)

Expand to show TLE details & history
Last TLE update: 2 days ago

TLE from 2 days ago
0 CZ-6A DEB
1 55898U 22151AAW 26264.28404177  .00000733  00000-0  40016-3 0  9996
2 55898  98.8296 264.4457 0058182  82.9836 277.7950 14.14272779192486
Epoch: 2026-09-21T06:49Z
TLE epoch observation values (Epoch: 2026-09-21T06:49:01.208Z)
Latitude
0.00001°
Longitude
162.02458°
Altitude
842.23 km
Speed
7.434 km/s
True Right ascension
17h 37m 46s
True Declination
0° 00' 00"
Sunlit
Object was in daylight at epoch
Visualization orbit readout
Latitude
Unknown
Longitude
Unknown
Altitude
Unknown
Speed
Unknown
Apparent Right ascension
Unknown
Apparent Declination
Unknown
Sunlit
N/A
Visualization observer readout
Local Sidereal Time
17:12:12
Azimuth
Unknown
Elevation
Unknown
Doppler factor
Unknown
Orbital elements
Apogee altitude
883.967 km
Perigee altitude
799.951 km
Semi-major axis
7,220.096 km
Eccentricity
0.00582
Inclination
98.8296°
RAAN
264.4457°
Arg. of periapsis
82.9836°
True anomaly
277.13381°
Mean anomaly
277.795°
Eccentric anomaly
277.46447°
Mean motion
3.53776 °/min
Orbital period
101.76 mins
BSTAR
0.00040016
Loading maneuver chart data...
Computing Atmospheric mass density...

Documentation

Showing up to 5 results
|